Погода в Тюлячах

Россия / Республика Татарстан     55°53′25″N   50°14′13″E
темп.,
°C
ветер,
м/с
пор.,
м/с
влажн.,
%
обл.,
%
осадки,
мм/ч
давл.,
гПа
погр.,
м
19 января, ср
ср1900:00−2ююз81596100 0.8 1008659
03:00−2ююз81496100 1.6 1009641
06:00−3ююз7139599 0.6 1010532
09:00−3юз61196100 1.3 1012597
12:00−3з3697100 1.1 1013429
15:00−6зсз2497100 2.1 1014209
18:00−7з2496100 0.6 1015191
21:00−9зюз229795 1.0 101639
20 января, чт
чт2000:00−17з229965 0.1 10189
03:00−20юз2210091 0.1 101910
06:00−14ю3710099 0.0 101988
09:00−12ююз41098100 0.1 1019208
12:00−10ююз5139477 0.0 1019322
15:00−10ююз41195100 0.0 1020241
18:00−10ююз5139573 0.0 1020236
21:00−9ююз51398100 0.1 1020293
21 января, пт
пт2100:00−9ю4129799 0.1 1021246
03:00−8ю51195100 0.1 1021276
06:00−11ю4109795 0.0 1022188
09:00−14ю499895 0.1 1023158
12:00−11ююв499780 0.0 1023218
15:00−11ююв499666 0.1 1024200
18:00−12ююв4119660 0.0 1024199
21:00−14ююв4129367 0.0 1024193
22 января, сб
сб2200:00−13юв5118959 0.0 1025198
03:00−14юв41187100 0.0 1025187
06:00−14юв51285100 0.0 1025205
09:00−13юв51188100 0.0 1026214
12:00−11ююв5118785 0.0 1027288
15:00−11юв4991100 0.0 1028189
18:00−11юв51091100 0.0 1029242
21:00−10юв51092100 0.0 1029244
23 января, вс
вс2300:00−11юв51092100 0.0 1030199
03:00−11юв41090100 0.0 1032231
06:00−12юв4990100 0.0 1032174
09:00−11юв4987100 0.0 1034208
12:00−9юв4985100 0.0 1035253
15:00−9юв4888100 0.0 1036215
18:00−10юв3790100 0.0 1037137
21:00−9ююв3690100 0.0 1038154